Lid_Strength_Index
4 4 4 4 4 4 4 4 4 4 4 5 5 5 6 6 6 6 5 5 5 5 5 5 5 5 7 12 12 7 -0 0 1 3 6 7 9 11 12 11 10 10 9 8 8 8 8
4 4 4 4 4 4 3 4 3 3 4 4 4 5 5 6 6 6 6 5 5 5 5 5 5 5 10 15 9 8 8 8 4 5 6 6 7 8 9 9 10 8 8 9 8 8 8
3 3 3 3 3 3 3 3 3 3 3 4 4 4 4 5 5 6 6 6 6 5 5 5 5 6 10 12 9 9 9 9 8 8 9 7 5 7 7 9 8 8 10 9 9 9 9
3 3 3 2 2 2 2 2 3 3 2 2 3 3 4 4 5 5 5 5 5 5 6 5 5 7 12 7 8 8 9 8 7 8 8 7 7 8 8 7 8 10 11 13 10 9 9
2 1 1 2 2 2 2 2 2 2 2 2 2 2 2 3 4 4 5 5 5 5 5 5 7 9 13 5 7 6 7 8 8 7 8 6 8 9 9 11 12 12 13 13 12 9 10
2 2 2 2 2 2 2 2 2 2 2 2 2 2 2 2 2 3 4 4 5 5 6 5 6 10 9 9 6 6 7 7 8 9 9 10 12 13 13 13 16 14 14 14 13 11 10
2 2 2 2 2 2 2 2 2 2 2 2 2 2 2 2 2 2 4 8 8 10 8 9 9 10 9 6 5 7 6 7 8 10 13 11 15 17 14 11 11 11 12 14 13 10 11
2 2 2 2 1 1 1 1 1 1 1 2 1 1 1 2 2 2 4 9 7 7 12 8 8 8 6 6 9 6 5 9 8 12 11 13 16 13 11 11 12 13 14 14 12 10 11
2 2 2 2 1 1 1 1 1 1 1 1 1 1 1 0 1 4 7 7 4 5 12 10 8 9 8 7 10 8 7 9 11 11 12 14 11 10 11 12 13 14 15 14 14 11 10
2 2 2 2 2 1 1 1 1 1 1 0 0 0 0 0 5 5 7 4 4 5 16 14 10 9 7 7 10 6 6 9 10 12 9 10 9 11 11 12 12 15 11 12 13 14 16
2 3 2 2 1 1 0 0 0 -0 -0 -1 -1 -1 -1 1 6 6 5 4 3 7 22 11 9 5 7 9 8 8 6 9 11 11 11 12 10 10 11 10 10 13 10 12 13 13 14
2 2 2 1 0 0 -0 -1 -1 -2 -2 -2 -2 -1 -0 3 6 4 3 4 6 15 20 11 7 8 10 9 8 7 8 7 8 11 10 11 9 11 10 9 9 8 10 10 11 13 18
2 2 1 1 0 -0 -1 -1 -2 -2 -2 -2 -2 -1 1 2 7 4 3 6 14 17 10 11 11 9 9 9 9 8 9 10 13 15 14 12 11 10 9 12 10 10 13 17 19 19 19
2 2 2 1 0 -0 -0 -1 -1 -2 -2 -1 -1 -1 1 2 4 4 4 9 17 12 11 8 9 9 10 9 9 9 10 11 9 12 14 16 16 11 10 11 12 12 12 17 21 21 18
2 2 1 1 1 0 0 -0 -1 -1 -1 -1 -1 3 4 4 3 3 7 14 14 11 10 10 10 12 12 10 10 10 11 11 9 9 14 14 15 10 9 9 9 12 13 10 15 15 18
2 1 2 2 1 0 0 0 -0 -1 -0 -0 2 5 5 3 3 5 9 13 11 9 9 9 13 12 14 13 12 12 11 9 9 9 8 11 15 9 8 10 10 10 9 15 14 20 21
2 2 2 2 1 0 0 0 -0 -0 -0 -0 3 9 5 4 2 7 14 12 10 8 8 10 11 12 12 12 12 13 13 10 9 9 8 10 13 12 10 12 13 12 13 11 12 15 19
2 2 3 2 1 0 0 0 0 0 0 1 6 14 5 3 10 9 14 10 8 9 8 9 8 10 11 12 13 12 13 11 8 8 11 10 12 15 13 9 8 10 12 11 16 17 15
2 2 2 2 1 0 0 0 0 0 0 3 8 10 5 2 12 12 10 9 9 9 9 9 9 9 9 11 14 12 11 8 8 9 10 10 12 16 14 12 10 13 11 10 11 13 16
2 2 2 2 2 1 1 0 0 0 0 3 7 12 10 7 6 9 12 12 11 7 8 7 8 7 9 11 10 12 11 9 8 8 7 9 12 14 17 14 12 14 13 11 12 17 16
2 2 2 2 2 1 1 0 0 0 0 3 8 12 9 11 11 10 10 10 11 10 7 7 9 9 9 12 12 12 11 10 8 8 8 9 14 12 12 11 11 12 12 12 13 12 16
2 2 2 2 2 1 1 1 0 0 1 5 11 13 9 10 9 10 11 11 11 10 9 10 10 9 9 11 11 12 11 10 10 9 10 9 14 12 14 11 11 12 11 11 11 12 12
2 1 2 2 2 2 1 1 1 1 2 6 6 7 9 11 11 12 12 10 10 8 8 7 8 9 10 9 8 7 7 7 8 10 11 11 13 14 17 13 13 15 12 11 11 12 12
2 1 2 2 2 2 1 1 1 1 2 6 7 9 12 14 13 12 11 10 10 9 9 8 7 9 7 5 5 6 7 8 8 9 8 11 12 13 16 14 20 12 9 10 12 11 10
2 2 1 2 2 2 2 2 2 2 2 5 7 8 10 15 12 12 11 10 9 8 8 8 7 6 5 7 11 12 12 12 10 9 9 9 12 15 17 18 14 12 11 12 12 13 9
2 2 1 2 2 2 2 2 2 2 2 4 6 6 8 12 12 10 11 10 12 11 9 8 5 5 6 10 12 15 16 14 15 12 8 9 10 13 15 18 20 14 10 7 8 16 9
2 2 1 1 1 1 1 1 1 1 2 3 5 5 7 10 9 9 11 11 9 9 10 8 8 9 7 11 14 15 15 11 15 16 15 14 13 15 16 17 14 10 9 8 16 15 8
2 1 1 1 1 1 1 1 1 1 1 3 5 4 7 9 8 7 7 9 8 8 10 8 9 9 9 12 13 14 15 12 13 12 14 14 15 16 15 17 18 8 9 13 10 8 8
2 1 1 1 1 1 1 1 1 1 1 2 5 3 3 7 7 6 5 5 5 5 7 6 8 8 8 11 12 12 14 13 12 16 10 15 12 14 13 13 9 7 8 6 8 9 10